When you browse on this site, cookies collect data to enhance your experience and personalize the content and advertising you see.
Visit our Privacy Policy to learn more. By continuing to use the site, you agree to this use of cookies and data.
EN

Hourly Weather Koeln

Today, 5 July, Sunday

Time Temperature Precipitation Wind Pressure Humidity
00:00 +20°C° 0 mm 5 mps 755 mmHg 87%
01:00 +20°C° 0 mm 5 mps 755 mmHg 87%
02:00 +20°C° 0 mm 4 mps 754 mmHg 87%
03:00 +20°C° 0 mm 4 mps 754 mmHg 87%
04:00 +20°C° 0 mm 4 mps 754 mmHg 86%
05:00 +20°C° 0 mm 5 mps 754 mmHg 84%
06:00 +20°C° 0 mm 5 mps 754 mmHg 83%
07:00 +21°C° 0 mm 5 mps 754 mmHg 81%
08:00 +21°C° 0 mm 6 mps 755 mmHg 78%
09:00 +22°C° 0 mm 6 mps 755 mmHg 76%
10:00 +22°C° 0.1 mm 6 mps 755 mmHg 75%
11:00 +22°C° 0.1 mm 6 mps 755 mmHg 74%
12:00 +22°C° 0.1 mm 6 mps 755 mmHg 73%
13:00 +22°C° 0 mm 6 mps 754 mmHg 72%
14:00 +22°C° 0 mm 6 mps 754 mmHg 71%
15:00 +22°C° 0 mm 6 mps 754 mmHg 71%
16:00 +22°C° 0.1 mm 6 mps 754 mmHg 72%
17:00 +21°C° 0.1 mm 6 mps 754 mmHg 74%
18:00 +21°C° 0.1 mm 6 mps 754 mmHg 75%
19:00 +20°C° 0.1 mm 5 mps 754 mmHg 76%
20:00 +19°C° 0.1 mm 5 mps 754 mmHg 78%
21:00 +17°C° 0.1 mm 5 mps 754 mmHg 79%
22:00 +16°C° 0 mm 5 mps 754 mmHg 78%
23:00 +15°C° 0 mm 5 mps 754 mmHg 77%

Tomorrow, 6 July, Monday

Time Temperature Precipitation Wind Pressure Humidity
00:00 +14°C° 0 mm 5 mps 755 mmHg 76%
01:00 +13°C° 0 mm 5 mps 755 mmHg 77%
02:00 +13°C° 0 mm 5 mps 755 mmHg 77%
03:00 +12°C° 0 mm 4 mps 755 mmHg 77%
04:00 +13°C° 0 mm 5 mps 755 mmHg 73%
05:00 +13°C° 0 mm 5 mps 755 mmHg 68%
06:00 +14°C° 0 mm 6 mps 755 mmHg 63%
07:00 +14°C° 0 mm 6 mps 756 mmHg 63%
08:00 +15°C° 0 mm 6 mps 756 mmHg 62%
09:00 +15°C° 0 mm 6 mps 756 mmHg 62%
10:00 +16°C° 0.1 mm 6 mps 756 mmHg 60%
11:00 +17°C° 0.1 mm 6 mps 756 mmHg 59%
12:00 +17°C° 0.1 mm 6 mps 756 mmHg 58%
13:00 +19°C° 0.4 mm 6 mps 756 mmHg 57%
14:00 +18°C° 0.4 mm 7 mps 757 mmHg 56%
15:00 +18°C° 0.4 mm 7 mps 757 mmHg 56%
16:00 +17°C° 0.2 mm 6 mps 757 mmHg 59%
17:00 +17°C° 0.2 mm 5 mps 758 mmHg 62%
18:00 +16°C° 0.2 mm 5 mps 758 mmHg 66%
19:00 +15°C° 0 mm 4 mps 759 mmHg 70%
20:00 +14°C° 0 mm 4 mps 760 mmHg 74%
21:00 +13°C° 0 mm 3 mps 760 mmHg 78%
22:00 +12°C° 0 mm 3 mps 761 mmHg 81%
23:00 +11°C° 0 mm 3 mps 761 mmHg 84%

Day after tomorrow, 7 July, Tuesday

Time Temperature Precipitation Wind Pressure Humidity
00:00 +11°C° 0 mm 3 mps 761 mmHg 87%
01:00 +10°C° 0 mm 2 mps 761 mmHg 88%
02:00 +10°C° 0 mm 2 mps 762 mmHg 88%
03:00 +10°C° 0 mm 2 mps 762 mmHg 88%
04:00 +12°C° 0 mm 1 mps 762 mmHg 83%
05:00 +13°C° 0 mm 1 mps 762 mmHg 79%
06:00 +14°C° 0 mm 1 mps 762 mmHg 74%
07:00 +15°C° 0 mm 1 mps 762 mmHg 65%
08:00 +18°C° 0 mm 1 mps 762 mmHg 57%
09:00 +19°C° 0 mm 1 mps 762 mmHg 49%
10:00 +19°C° 0 mm 2 mps 761 mmHg 46%
11:00 +20°C° 0 mm 2 mps 761 mmHg 44%
12:00 +21°C° 0 mm 2 mps 760 mmHg 42%
13:00 +21°C° 0 mm 3 mps 760 mmHg 43%
14:00 +21°C° 0 mm 3 mps 759 mmHg 44%
15:00 +22°C° 0 mm 3 mps 759 mmHg 46%
16:00 +21°C° 0 mm 3 mps 759 mmHg 49%
17:00 +21°C° 0 mm 3 mps 759 mmHg 53%
18:00 +20°C° 0 mm 2 mps 759 mmHg 57%
19:00 +19°C° 0 mm 2 mps 758 mmHg 61%
20:00 +18°C° 0 mm 2 mps 758 mmHg 66%
21:00 +17°C° 0 mm 2 mps 758 mmHg 70%
22:00 +16°C° 0 mm 2 mps 758 mmHg 71%
23:00 +16°C° 0 mm 3 mps 758 mmHg 72%

8 July, Wednesday

Time Temperature Precipitation Wind Pressure Humidity
00:00 +16°C° 0 mm 3 mps 757 mmHg 73%
01:00 +16°C° 0 mm 3 mps 757 mmHg 72%
02:00 +16°C° 0 mm 3 mps 757 mmHg 70%
03:00 +15°C° 0 mm 4 mps 757 mmHg 69%
04:00 +15°C° 0 mm 4 mps 757 mmHg 68%
05:00 +15°C° 0 mm 4 mps 756 mmHg 67%
06:00 +15°C° 0 mm 5 mps 756 mmHg 65%
07:00 +16°C° 0 mm 5 mps 756 mmHg 65%
08:00 +17°C° 0 mm 5 mps 757 mmHg 65%
09:00 +19°C° 0 mm 5 mps 757 mmHg 65%
10:00 +20°C° 0.1 mm 5 mps 757 mmHg 63%
11:00 +20°C° 0.1 mm 5 mps 757 mmHg 62%
12:00 +21°C° 0.1 mm 5 mps 757 mmHg 60%
13:00 +21°C° 0.1 mm 5 mps 757 mmHg 59%
14:00 +21°C° 0.1 mm 5 mps 758 mmHg 59%
15:00 +22°C° 0.1 mm 4 mps 758 mmHg 59%
16:00 +21°C° 0.1 mm 4 mps 758 mmHg 62%
17:00 +20°C° 0.1 mm 3 mps 759 mmHg 66%
18:00 +20°C° 0.1 mm 2 mps 759 mmHg 70%
19:00 +18°C° 0 mm 2 mps 759 mmHg 74%
20:00 +17°C° 0 mm 2 mps 760 mmHg 79%
21:00 +16°C° 0 mm 2 mps 760 mmHg 84%
22:00 +15°C° 0 mm 2 mps 760 mmHg 84%
23:00 +14°C° 0 mm 1 mps 761 mmHg 85%

9 July, Thursday

Time Temperature Precipitation Wind Pressure Humidity
00:00 +14°C° 0 mm 1 mps 761 mmHg 86%
01:00 +14°C° 0 mm 1 mps 761 mmHg 86%
02:00 +13°C° 0 mm 1 mps 761 mmHg 86%
03:00 +12°C° 0 mm 0 mps 761 mmHg 87%
04:00 +13°C° 0 mm 0 mps 761 mmHg 84%
05:00 +14°C° 0 mm 0 mps 761 mmHg 81%
06:00 +15°C° 0 mm 0 mps 761 mmHg 78%
07:00 +17°C° 0 mm 0 mps 761 mmHg 71%
08:00 +19°C° 0 mm 0 mps 761 mmHg 64%
09:00 +21°C° 0 mm 0 mps 760 mmHg 57%
10:00 +22°C° 0 mm 0 mps 760 mmHg 53%
11:00 +23°C° 0 mm 0 mps 760 mmHg 49%
12:00 +24°C° 0 mm 0 mps 759 mmHg 45%
13:00 +26°C° 0 mm 1 mps 759 mmHg 44%
14:00 +26°C° 0 mm 1 mps 759 mmHg 44%
15:00 +26°C° 0 mm 1 mps 758 mmHg 43%
16:00 +26°C° 0 mm 1 mps 758 mmHg 47%
17:00 +25°C° 0 mm 1 mps 758 mmHg 51%
18:00 +25°C° 0 mm 1 mps 757 mmHg 56%
19:00 +23°C° 0 mm 1 mps 757 mmHg 60%
20:00 +21°C° 0 mm 1 mps 757 mmHg 65%
21:00 +20°C° 0 mm 1 mps 757 mmHg 69%
22:00 +19°C° 0 mm 1 mps 757 mmHg 71%
23:00 +19°C° 0 mm 1 mps 757 mmHg 74%

10 July, Friday

Time Temperature Precipitation Wind Pressure Humidity
00:00 +17°C° 0 mm 2 mps 757 mmHg 76%
01:00 +17°C° 0 mm 2 mps 756 mmHg 77%
02:00 +17°C° 0 mm 2 mps 756 mmHg 79%
03:00 +16°C° 0 mm 2 mps 756 mmHg 80%
04:00 +17°C° 0 mm 2 mps 756 mmHg 77%
05:00 +18°C° 0 mm 2 mps 756 mmHg 73%
06:00 +20°C° 0 mm 2 mps 756 mmHg 70%
07:00 +21°C° 0 mm 2 mps 756 mmHg 65%
08:00 +24°C° 0 mm 3 mps 756 mmHg 61%
09:00 +25°C° 0 mm 4 mps 755 mmHg 57%
10:00 +25°C° 0.1 mm 4 mps 755 mmHg 58%
11:00 +25°C° 0.1 mm 5 mps 755 mmHg 59%
12:00 +23°C° 0.1 mm 6 mps 755 mmHg 60%
13:00 +23°C° 0 mm 5 mps 755 mmHg 61%
14:00 +22°C° 0 mm 5 mps 755 mmHg 61%
15:00 +21°C° 0 mm 4 mps 755 mmHg 61%
16:00 +21°C° 0 mm 4 mps 756 mmHg 59%
17:00 +20°C° 0 mm 4 mps 756 mmHg 57%
18:00 +20°C° 0 mm 4 mps 756 mmHg 54%
19:00 +18°C° 0 mm 4 mps 757 mmHg 58%
20:00 +16°C° 0 mm 3 mps 758 mmHg 62%
21:00 +14°C° 0 mm 3 mps 758 mmHg 66%
22:00 +14°C° 0 mm 2 mps 758 mmHg 69%
23:00 +13°C° 0 mm 2 mps 759 mmHg 72%
Show more